GW3459 Weather Reports


time (UTC)temp
C
wind
direction
speed
KPH
gust
KPH
rain 1hr
cm
rain 24hr
cm
rain mn
cm
humidity
%
barometer
mb
20260506124511 7 3 3.2 3.2 0.18 1.60 1.60 99 1008.7
20260506124009 7 354 4.8 9.7 0.00 1.57 1.57 99 1008.3
20260506123506 7 7 1.6 1.6 0.00 1.57 1.57 99 1007.9
20260506123004 7 333 1.6 3.2 0.13 1.57 1.57 99 1007.7
20260506122501 7 343 1.6 1.6 0.13 1.57 1.57 99 1007.6
20260506121959 7 351 3.2 3.2 0.00 1.55 1.55 99 1007.7
20260506121456 7 357 1.6 1.6 0.00 1.55 1.55 99 1007.8
20260506120952 7 350 3.2 4.8 0.18 1.55 1.55 99 1007.8
20260506120450 7 246 3.2 3.2 0.18 1.55 1.55 99 1007.9
20260506115947 7 329 4.8 4.8 0.00 1.52 1.52 99 1008.2
20260506115445 7 2 0.0 1.6 0.00 1.52 1.52 99 1007.8
20260506114943 7 332 1.6 3.2 0.00 1.52 1.52 99 1008.2
20260506114440 7 330 4.8 4.8 0.13 1.52 1.52 99 1008.0
20260506113939 7 335 3.2 4.8 0.13 1.52 1.52 99 1008.2
20260506113436 7 339 3.2 3.2 0.00 1.50 1.50 99 1007.9
20260506112932 7 348 3.2 3.2 0.00 1.50 1.50 99 1007.6
20260506112430 7 341 1.6 1.6 0.00 1.50 1.50 99 1007.8
20260506111927 7 345 4.8 8.0 0.00 1.50 1.50 99 1007.7
20260506111425 7 352 0.0 1.6 0.00 1.50 1.50 99 1007.3
20260506110922 7 329 3.2 3.2 0.00 1.50 1.50 99 1007.1
20260506110420 7 357 3.2 3.2 0.00 1.50 1.50 99 1007.3
20260506105916 7 336 6.4 8.0 0.00 1.50 1.50 99 1006.5
20260506105413 7 17 0.0 0.0 0.00 1.50 1.50 99 1005.7
20260506104910 7 0 1.6 1.6 0.18 1.50 1.50 99 1006.2
20260506104408 7 307 1.6 1.6 0.18 1.50 1.50 99 1006.8
20260506103906 7 345 1.6 1.6 0.13 1.47 1.47 99 1006.6
20260506103403 7 349 1.6 3.2 0.30 1.47 1.47 99 1006.8
20260506102900 7 332 3.2 3.2 0.18 1.45 1.45 99 1006.7
20260506102358 7 357 3.2 3.2 0.13 1.42 1.42 99 1006.7
20260506101854 7 359 1.6 3.2 0.13 1.42 1.42 99 1006.7
20260506101351 7 358 3.2 3.2 0.18 1.40 1.40 99 1006.8
20260506100848 7 345 3.2 3.2 0.30 1.40 1.40 99 1007.1
20260506100347 7 297 1.6 3.2 0.13 1.37 1.37 99 1006.8
20260506095845 7 2 4.8 4.8 0.18 1.35 1.35 99 1006.7
20260506095342 8 318 1.6 1.6 0.36 1.35 1.35 99 1006.5
20260506094838 8 3 3.2 3.2 0.18 1.32 1.32 99 1006.6
20260506094338 8 349 4.8 4.8 0.00 1.30 1.30 99 1006.5
20260506093835 8 346 3.2 4.8 0.00 1.30 1.30 99 1006.5
20260506093332 8 351 1.6 1.6 0.13 1.30 1.30 99 1006.4
20260506092830 8 355 1.6 1.6 0.13 1.30 1.30 99 1006.5
20260506092327 8 351 1.6 3.2 0.30 1.30 1.30 99 1006.2
20260506091824 8 315 3.2 3.2 0.18 1.27 1.27 99 1006.4
20260506091322 9 297 8.0 9.7 0.00 1.24 1.24 99 1006.2
20260506090819 9 19 3.2 3.2 0.13 1.24 1.24 99 1006.3
20260506090317 9 350 3.2 3.2 0.30 1.24 1.24 99 1005.8
20260506085813 9 338 1.6 3.2 0.30 1.22 1.22 99 1006.0
20260506085309 9 0 0.0 1.6 0.48 1.22 1.22 99 1006.0
20260506084806 9 346 0.0 0.0 0.30 1.17 1.17 99 1006.1
20260506084302 9 350 0.0 1.6 0.43 1.14 1.14 99 1006.0
20260506083759 9 8 1.6 3.2 0.61 1.12 1.12 99 1006.1
20260506083257 9 352 1.6 1.6 0.66 1.07 1.07 99 1006.3
20260506082754 9 0 3.2 3.2 0.48 1.02 1.02 99 1006.4
20260506082249 9 351 3.2 3.2 0.61 0.99 0.99 99 1006.1
20260506081747 10 5 1.6 1.6 0.48 0.94 0.94 99 1006.0
20260506081245 9 337 0.0 0.0 0.30 0.89 0.89 99 1006.2
20260506080743 10 2 4.8 4.8 0.30 0.86 0.86 99 1005.9
20260506080239 10 333 1.6 1.6 0.30 0.84 0.84 99 1005.9
20260506073223 10 336 0.0 1.6 0.18 0.74 0.74 99 1006.0
20260506072720 10 349 1.6 1.6 0.30 0.74 0.74 99 1006.0
20260506072217 10 322 1.6 1.6 0.13 0.71 0.71 99 1006.1
20260506071714 10 346 0.0 1.6 0.00 0.69 0.69 99 1005.7
20260506071212 10 351 3.2 3.2 0.18 0.69 0.69 99 1006.1
20260506070709 10 350 0.0 1.6 0.36 0.69 0.69 99 1005.9
20260506070206 10 341 3.2 3.2 0.30 0.66 0.66 99 1005.9
20260506062143 10 344 1.6 1.6 0.30 0.53 0.53 98 1006.1
20260506061639 10 341 1.6 3.2 0.18 0.51 0.51 98 1006.5
20260506061137 10 346 0.0 1.6 0.13 0.48 0.48 98 1006.6
20260506060635 10 337 1.6 1.6 0.13 0.48 0.48 98 1006.5
20260506060132 10 351 1.6 3.2 0.18 0.46 0.46 98 1006.5
20260506051104 11 359 0.0 0.0 0.30 0.20 0.20 98 1007.6
20260506050602 11 346 4.8 4.8 0.30 0.20 0.20 98 1007.5
20260506045052 11 359 3.2 3.2 0.18 0.13 0.13 98 1007.5
20260506044550 11 4 0.0 0.0 0.18 0.13 0.13 98 1007.6
20260506044046 11 332 4.8 4.8 0.00 0.10 0.10 98 1007.9
20260506043543 11 356 0.0 0.0 0.13 0.10 0.10 98 1007.8
20260506043042 12 19 1.6 3.2 0.13 0.10 0.10 98 1007.7
20260506042541 12 346 1.6 1.6 0.18 0.08 0.08 98 1007.5
20260506042038 13 316 4.8 4.8 0.36 0.08 0.08 98 1007.8
20260506041537 13 334 0.0 0.0 0.18 0.05 0.05 98 1007.7
20260506041033 13 349 0.0 0.0 0.13 0.03 0.03 98 1007.7
20260506040531 13 347 1.6 1.6 0.13 0.03 0.03 98 1007.6
20260506040027 13 280 3.2 3.2 0.18 1.68 1.68 98 1007.8
20260506035524 13 271 1.6 1.6 0.18 1.68 1.68 98 1007.8
20260506035021 13 296 4.8 8.0 0.00 1.65 1.65 98 1007.8
20260506034518 13 334 1.6 1.6 0.13 1.65 1.65 98 1007.7
20260506034015 13 332 1.6 3.2 0.13 1.65 1.65 98 1007.9
20260506033512 13 345 1.6 1.6 0.18 1.63 1.63 98 1007.8
20260506033009 13 317 1.6 1.6 0.30 1.63 1.63 98 1007.8
20260506032507 13 333 1.6 1.6 0.30 1.60 1.60 98 1008.0
20260506032003 13 228 0.0 1.6 0.61 1.60 1.60 98 1007.8
20260506031501 13 230 4.8 4.8 1.07 1.55 1.55 97 1007.8
20260506030958 13 333 0.0 0.0 0.97 1.47 1.47 97 1007.9
20260506030456 13 333 0.0 0.0 0.79 1.40 1.40 97 1007.7
20260506025952 13 349 0.0 0.0 0.61 1.32 1.32 97 1008.0
20260506025449 13 255 0.0 0.0 0.18 1.24 1.24 97 1007.8
20260506024946 13 336 0.0 0.0 0.13 1.22 1.22 97 1007.9
20260506024443 13 343 0.0 0.0 0.13 1.22 1.22 97 1008.0
20260506023938 13 343 0.0 0.0 0.00 1.19 1.19 97 1007.8
20260506023435 13 344 0.0 0.0 0.00 1.19 1.19 97 1007.6
20260506022932 13 344 0.0 0.0 0.18 1.19 1.19 97 1007.9
20260506022430 13 348 0.0 0.0 0.18 1.19 1.19 97 1007.8
20260506021928 13 349 0.0 0.0 0.13 1.17 1.17 97 1008.0
20260506021425 13 349 0.0 0.0 0.13 1.17 1.17 97 1007.9
20260506020922 13 349 0.0 0.0 0.18 1.14 1.14 96 1007.9
20260506020420 13 350 0.0 0.0 0.18 1.14 1.14 96 1007.9
20260506015916 13 350 0.0 0.0 0.13 1.12 1.12 96 1007.9
20260506015414 13 350 0.0 0.0 0.61 1.12 1.12 96 1008.2
20260506014910 13 341 0.0 0.0 0.66 1.09 1.09 96 1008.2
20260506014408 13 310 1.6 1.6 0.30 1.02 1.02 96 1008.3
20260506013904 13 345 0.0 0.0 0.13 0.99 0.99 96 1007.7
20260506013402 13 345 0.0 0.0 0.00 0.97 0.97 96 1007.7
20260506012858 13 339 0.0 1.6 0.00 0.97 0.97 95 1007.7
20260506012355 13 347 0.0 0.0 0.00 0.97 0.97 95 1007.6
20260506011852 13 348 0.0 0.0 0.00 0.97 0.97 95 1007.6
20260506011349 13 342 0.0 0.0 0.00 0.97 0.97 95 1007.5
20260506010846 13 355 0.0 1.6 0.00 0.97 0.97 95 1007.4
20260506010344 13 344 1.6 1.6 0.18 0.97 0.97 95 1007.5
20260506005841 13 348 0.0 1.6 0.18 0.97 0.97 94 1007.5
20260506005338 13 346 3.2 3.2 0.13 0.94 0.94 94 1007.5
20260506004833 14 21 1.6 3.2 0.71 0.94 0.94 93 1008.0
20260506004331 14 341 4.8 8.0 4.27 0.91 0.91 93 1008.0
20260506003827 16 28 8.0 9.7 3.96 0.74 0.74 91 1008.2
20260506003324 17 335 3.2 3.2 1.07 0.25 0.25 87 1007.1
20260506002820 17 353 3.2 3.2 0.00 0.08 0.08 83 1006.8
20260506002317 17 351 0.0 0.0 0.00 0.08 0.08 82 1006.6
20260506001812 17 354 0.0 1.6 0.00 0.08 0.08 82 1006.6
20260506001310 17 358 0.0 0.0 0.00 0.08 0.08 82 1006.6
20260506000806 17 343 0.0 0.0 0.00 0.08 0.08 81 1006.5
20260506000304 17 345 1.6 1.6 0.00 0.08 0.08 81 1006.7
20260505235801 17 338 0.0 0.0 0.00 0.08 0.08 81 1007.0
20260505235258 17 345 0.0 0.0 0.00 0.08 0.08 81 1006.6
20260505234755 17 346 1.6 1.6 0.00 0.08 0.08 80 1006.7
20260505234253 17 347 1.6 1.6 0.00 0.08 0.08 80 1006.7
20260505233749 17 1 0.0 1.6 0.00 0.08 0.08 79 1006.7
20260505233247 17 346 0.0 0.0 0.00 0.08 0.08 78 1006.7
20260505232744 17 347 0.0 0.0 0.00 0.08 0.08 78 1006.8
20260505232242 17 333 0.0 0.0 0.00 0.08 0.08 78 1006.5
20260505231738 18 333 0.0 0.0 0.00 0.08 0.08 78 1006.8
20260505231237 18 332 0.0 0.0 0.00 0.08 0.08 77 1006.8
20260505230735 18 344 0.0 0.0 0.00 0.08 0.08 76 1006.8
20260505230231 18 349 0.0 0.0 0.00 0.08 0.08 76 1006.9
20260505225728 18 349 0.0 0.0 0.00 0.08 0.08 76 1006.7
20260505225225 18 341 1.6 1.6 0.00 0.08 0.08 76 1006.8
20260505224720 18 341 1.6 1.6 0.00 0.08 0.08 76 1007.0
20260505224218 18 349 1.6 1.6 0.00 0.08 0.08 76 1007.0
20260505223716 18 331 1.6 1.6 0.00 0.08 0.08 76 1007.3
20260505223211 18 334 0.0 0.0 0.00 0.08 0.08 76 1007.1
20260505222708 18 337 0.0 1.6 0.00 0.08 0.08 76 1007.3
20260505222203 18 327 1.6 1.6 0.00 0.08 0.08 75 1007.1
20260505221701 18 328 1.6 1.6 0.00 0.08 0.08 75 1007.0
20260505221158 18 330 0.0 1.6 0.00 0.08 0.08 75 1007.4
20260505220655 18 329 1.6 1.6 0.00 0.08 0.08 75 1007.1
20260505220153 18 334 0.0 0.0 0.00 0.08 0.08 75 1007.1
20260505215650 18 322 1.6 1.6 0.00 0.08 0.08 75 1007.3
20260505215148 18 305 1.6 1.6 0.00 0.08 0.08 75 1007.3
20260505214646 18 320 1.6 1.6 0.00 0.08 0.08 75 1007.3
20260505214143 18 312 1.6 1.6 0.00 0.08 0.08 75 1007.3
20260505213640 18 326 0.0 1.6 0.00 0.08 0.08 75 1007.5
20260505213137 18 324 1.6 1.6 0.00 0.08 0.08 75 1007.4
20260505212632 18 326 1.6 1.6 0.00 0.08 0.08 76 1007.5
20260505212130 17 336 1.6 1.6 0.00 0.08 0.08 76 1007.3
20260505211627 18 320 3.2 3.2 0.00 0.08 0.08 75 1007.4
20260505211124 17 335 3.2 3.2 0.00 0.08 0.08 75 1007.3
20260505210621 17 246 3.2 3.2 0.00 0.08 0.08 75 1007.5
20260505210118 18 312 3.2 3.2 0.00 0.08 0.08 74 1007.5
20260505205615 18 306 1.6 3.2 0.00 0.08 0.08 73 1007.4
20260505205113 18 347 1.6 1.6 0.00 0.08 0.08 71 1007.5
20260505204610 19 337 1.6 1.6 0.00 0.08 0.08 67 1007.4
20260505204108 20 325 1.6 1.6 0.00 0.08 0.08 66 1007.4
20260505203604 20 299 3.2 3.2 0.00 0.08 0.08 64 1007.1
20260505203101 20 190 1.6 1.6 0.00 0.08 0.08 62 1007.0
20260505202556 20 192 3.2 3.2 0.00 0.08 0.08 59 1007.1
20260505202053 20 327 1.6 1.6 0.00 0.08 0.08 60 1007.0
20260505201550 20 315 1.6 1.6 0.00 0.08 0.08 60 1007.1
20260505201048 20 315 1.6 1.6 0.00 0.08 0.08 60 1007.1
20260505200545 20 311 1.6 3.2 0.00 0.08 0.08 59 1007.3
20260505200042 20 3 0.0 1.6 0.00 0.08 0.08 58 1007.3
20260505195538 20 239 1.6 1.6 0.00 0.08 0.08 58 1007.1
20260505195036 20 323 1.6 1.6 0.00 0.08 0.08 60 1007.3
20260505194533 20 326 1.6 1.6 0.00 0.08 0.08 58 1007.7
20260505194028 20 324 1.6 1.6 0.00 0.08 0.08 59 1007.6
20260505193526 20 195 1.6 1.6 0.00 0.08 0.08 59 1007.9
20260505193023 20 258 8.0 12.9 0.00 0.08 0.08 58 1007.9
20260505192521 20 215 3.2 4.8 0.00 0.08 0.08 59 1007.9
20260505192018 20 334 1.6 1.6 0.00 0.08 0.08 59 1007.9
20260505191516 20 262 3.2 4.8 0.00 0.08 0.08 59 1007.9
20260505191014 20 261 3.2 4.8 0.00 0.08 0.08 58 1007.8
20260505190508 20 238 8.0 11.3 0.00 0.08 0.08 58 1007.9
20260505190005 20 300 1.6 3.2 0.00 0.08 0.08 59 1008.0
20260505185502 20 313 4.8 4.8 0.00 0.08 0.08 59 1008.0
20260505184958 20 302 3.2 4.8 0.00 0.08 0.08 59 1008.1
20260505184455 20 278 4.8 8.0 0.00 0.08 0.08 57 1008.0
20260505183951 20 261 3.2 4.8 0.00 0.08 0.08 58 1007.9
20260505183449 20 276 3.2 3.2 0.00 0.08 0.08 58 1008.0
20260505182945 21 256 3.2 4.8 0.00 0.08 0.08 57 1008.0
20260505182442 21 269 6.4 9.7 0.00 0.08 0.08 58 1008.0
20260505181938 21 240 6.4 8.0 0.00 0.08 0.08 56 1008.0
20260505181436 21 35 8.0 9.7 0.00 0.08 0.08 54 1007.8
20260505180933 21 306 6.4 9.7 0.00 0.08 0.08 54 1007.7
20260505180429 22 106 8.0 11.3 0.00 0.08 0.08 52 1007.7
20260505175926 22 262 8.0 8.0 0.00 0.08 0.08 52 1007.8
20260505175422 22 218 1.6 3.2 0.00 0.08 0.08 51 1007.7
20260505174918 21 326 4.8 4.8 0.00 0.08 0.08 53 1007.8
20260505174416 21 250 11.3 12.9 0.00 0.08 0.08 50 1007.4
20260505173912 22 254 8.0 9.7 0.00 0.08 0.08 51 1007.6
20260505173408 21 298 9.7 12.9 0.00 0.08 0.08 52 1007.6
20260505172905 21 200 4.8 8.0 0.00 0.08 0.08 55 1007.6
20260505172403 22 172 12.9 22.5 0.00 0.08 0.08 53 1007.6
20260505171903 22 335 3.2 4.8 0.00 0.08 0.08 53 1007.4
20260505171400 21 290 4.8 4.8 0.00 0.08 0.08 56 1007.4
20260505170856 21 343 3.2 3.2 0.00 0.08 0.08 54 1007.7
20260505170354 21 314 4.8 8.0 0.00 0.08 0.08 57 1007.6
20260505165848 21 262 4.8 8.0 0.00 0.08 0.08 56 1007.8
20260505165344 21 247 6.4 8.0 0.00 0.08 0.08 55 1007.7
20260505164840 21 158 4.8 8.0 0.00 0.08 0.08 55 1007.4
20260505164337 21 299 6.4 9.7 0.00 0.08 0.08 56 1007.4
20260505163836 21 264 8.0 11.3 0.00 0.08 0.08 54 1007.4
20260505163334 21 287 11.3 16.1 0.00 0.08 0.08 53 1007.3
20260505162832 21 245 3.2 3.2 0.00 0.08 0.08 56 1007.3
20260505162328 21 94 3.2 3.2 0.00 0.08 0.08 55 1007.3
20260505161825 21 286 6.4 8.0 0.00 0.08 0.08 55 1007.1
20260505161322 21 298 8.0 11.3 0.00 0.08 0.08 55 1007.0
20260505160819 21 19 4.8 4.8 0.00 0.08 0.08 56 1007.3
20260505160318 21 107 6.4 8.0 0.00 0.08 0.08 55 1007.4
20260505153256 20 225 3.2 4.8 0.00 0.08 0.08 61 1007.7
20260505152753 20 154 4.8 8.0 0.00 0.08 0.08 62 1007.6
20260505152249 19 342 8.0 9.7 0.00 0.08 0.08 66 1007.8
20260505151744 19 214 8.0 11.3 0.00 0.08 0.08 66 1007.8
20260505151242 18 204 4.8 4.8 0.00 0.08 0.08 68 1007.7
20260505150738 18 276 6.4 8.0 0.00 0.08 0.08 71 1008.0
20260505150235 18 218 1.6 3.2 0.00 0.08 0.08 72 1007.8
20260505140200 17 236 4.8 8.0 0.00 0.00 0.00 73 1007.7
20260505130124 18 304 3.2 3.2 0.00 0.00 0.00 63 1007.3